www.pogodaiklimat.ru
ПОГОДА в Альтурасе
Время
и дата
05:55 19.07
06:55 19.07
07:55 19.07
08:55 19.07
09:55 19.07
10:55 19.07
11:55 19.07
12:55 19.07
13:55 19.07
14:55 19.07
15:55 19.07
16:55 19.07
17:55 19.07
18:55 19.07
19:55 19.07
20:55 19.07
21:55 19.07
23:55 19.07
00:55 20.07
01:55 20.07
02:55 20.07
03:55 20.07
04:55 20.07
05:55 20.07
06:55 20.07
07:55 20.07
08:55 20.07
09:55 20.07
10:55 20.07
11:55 20.07
12:55 20.07
13:55 20.07
14:55 20.07
15:55 20.07
16:55 20.07
17:55 20.07
18:55 20.07
19:55 20.07
20:55 20.07
21:55 20.07
22:55 20.07
23:55 20.07
00:55 21.07
01:55 21.07
02:55 21.07
03:55 21.07
04:55 21.07
05:55 21.07
Ветер
(напр.,м/с)
Видим. Явления Облачность Т
(С)
Тd
(С)
f
(%)
Тe
(С)
Тes
(С)
Комфортность P
(гПа)
Po
(гПа)
Тmin
(С)
Tmax
(С)
R
(мм)
R24
(мм)
S
(см)
штиль 0 16 км ясно +11.7 +5.0 63 +11 +11 1020.8 873.2
СВ 2 16 км ясно +17.2 +4.4 43 +18 +19 1020.9 873.5
В 2 16 км ясно +20.6 +5.0 36 +22 +26 комфорт 1020.8 873.5
штиль 0 16 км ясно +23.3 +5.6 32 +24 +34 комфорт 1020.5 872.9
нст 2 16 км ясно +27.2 +5.0 24 +26 +38 жарко 1019.6 872.6 +8.9 +27.2
нст 3 16 км ясно +30.0 +3.9 19 +28 +41 жарко 1019.2 872.3
16 км ясно +31.1 +2.2 16 +29 +53 опасность
солнечного
удара
1018.5 871.8
нст 2 16 км ясно +32.8 +0.6 13 +30 +49 жарко 1018.2 871.2
нст 3 16 км ясно +33.9 -3.3 9 +30 +45 жарко 1017.6 870.9
З 4
{7}
16 км ясно +34.4 -4.4 8 +30 +41 жарко 1016.9 870.3
СЗ 3 16 км ясно +34.4 -0.6 11 +31 +41 жарко 1016.4 869.7 +27.2 +35.6
нст 3 16 км ясно +35.0 0.0 11 +31 +38 жарко 1016.0 869.2
СЗ 4 16 км ясно +33.9 +0.6 12 +31 +33 жарко 1016.0 869.5
СЗ 3 16 км ясно +31.1 +1.7 15 +28 +29 жарко 1015.9 869.5
С 3 16 км ясно +27.8 +0.6 17 +26 +26 жарко 1016.5 870.0
С 3 16 км ясно +25.6 +2.8 23 +24 +24 комфорт 1017.2 870.6
СЗ 3 16 км ясно +25.0 +1.7 22 +24 +24 комфорт 1017.3 870.9 +22.8 +35.0
З 2 16 км ясно +20.0 +1.1 28 +21 +21 комфорт 1017.7 871.2
В 3 16 км ясно +17.8 +2.2 35 +18 +18 1017.7 871.2
СЗ 2 16 км ясно +14.4 +3.9 49 +14 +14 1017.9 871.2
штиль 0 16 км ясно +13.3 +3.9 53 +13 +13 1018.0 871.2
штиль 0 16 км ясно +11.7 +2.8 54 +11 +11 1018.4 871.5 +11.7 +25.0
Ю 2 16 км ясно +10.6 +3.9 63 +9 +9 1018.9 871.8
штиль 0 16 км ясно +13.9 +4.4 53 +14 +14 1018.6 871.8
штиль 0 16 км ясно +17.8 +3.9 40 +18 +19 1018.7 871.8
нст 2 16 км ясно +21.1 +5.6 36 +22 +25 комфорт 1018.5 871.8
СВ 2 16 км ясно +25.0 +5.0 28 +25 +32 комфорт 1017.7 871.2
штиль 0 16 км ясно +28.3 +3.9 21 +27 +42 жарко 1016.7 870.6 +10.0 +28.9
нст 2 16 км ясно +32.8 +4.4 17 +30 +46 жарко 1015.7 869.7
н/о н/о 869.2
н/о н/о 868.6
н/о н/о 867.7
СВ 5 16 км н/о +37.8 +3.9 12 +35 +35 очень
жарко
1013.1 867.4
Ю 3 16 км ясно +38.3 +2.8 11 +35 +45 очень
жарко
1012.6 866.9
нст 3 16 км ясно +37.8 +2.8 11 +34 +41 очень
жарко
1012.0 866.3
ЮВ 2 16 км ясно +36.1 +5.0 15 +33 +37 жарко 1011.8 866.3
нст 2 16 км ясно +33.9 +4.4 16 +31 +33 жарко 1012.4 866.9
штиль 0 16 км ясно +31.7 +6.7 21 +30 +30 жарко 1013.7 868.0
нст 2 16 км ясно +28.3 +7.2 26 +28 +28 жарко 1013.9 868.3
ЮЗ 5 16 км ясно +27.8 +5.6 24 +27 +27 жарко 1013.3 868.0 +27.8 +38.9
ЮЗ 3 16 км ясно +26.7 +6.7 28 +26 +26 жарко 1013.0 868.3
штиль 0 16 км ясно +22.2 +8.9 43 +24 +24 комфорт 868.3
СВ 2 16 км ясно +21.1 +7.2 41 +22 +22 комфорт 868.6
В 3 16 км ясно +20.6 +8.9 47 +22 +22 комфорт 868.6
СЗ 2 16 км ясно +17.8 +8.3 54 +18 +18 1013.8 868.6
В 3 16 км ясно +18.3 +8.3 52 +19 +19 1013.7 868.6 +16.7 +28.3
штиль 0 16 км ясно +16.1 +8.3 60 +16 +16 1014.3 868.6
штиль 0 16 км ясно +18.3 +8.9 54 +19 +19 1014.4 868.9
Местоположение метеостанции Alturas Municipal Airport: широта 41.4914 долгота -120.5644 высота над уровнем моря 1333 м.
В архиве по умолчанию представлена погода в Альтурасе за последние 1-2 суток. Обновление информации о фактической погоде в базе происходит ежечасно! Архивные данные за месяц целиком и за предыдущие месяцы Вы можете получить, выбрав интересующий диапазон дат из раскрывающегося списка и нажав кнопку "Ввод!".
Внимание! Архив погоды МЕТАР в базе сайта по станциям, не включенным в климатический монитор, хранится не более 60 дней. Нет смысла пытаться выбрать более раннюю дату.
*Определитесь, кто Вы:
Внимание! Время в таблицах - местное (без учета летнего времени). Для получения всемирного времени необходимо вычесть поправку, которая равна -8 ч.
Смотрите также архив погоды в соседних городах и на ближайших метеорологических станциях:
Партнеры нашего сайта:      
Пояснения к столбцам:
  • Ветер - указаны скорость ветра в м/с - средняя за 10 мин, порывы в срок и между сроками (в фигурных скобках) и направление, откуда дует ветер: С - северный,
  • СВ - северо-восточный, В - восточный, ЮВ - юго-восточный, Ю - южный, ЮЗ - юго-западный, З - западный, СЗ - северо-западный.
  • Видимость - горизонтальная дальность видимости в метрах или километрах. При видимости от 1 до 10 км при отсутствии осадков обычно наблюдается дымка, при ухудшении видимости до 1 км и менее - туман. В сухую погоду видимость может ухудшаться дымом, пылью или мглою.
  • Явления - указаны атмосферные явления, наблюдавшиеся в срок или в последний час перед сроком; фигурными скобками обозначены явления, наблюдавшиеся между сроками (за 1-3 часа до срока); квадратными скобками обозначены град или гололедные отложения с указанием их диаметра в мм.
  • Облачность - указаны через наклонную черту общая и нижняя облачность в баллах и высота нижней границы облаков в метрах; квадратными скобками обозначены формы облаков: Ci - перистые, Cs - перисто-слоистые, Cc - перисто-кучевые, Ac - высококучевые, As - высокослоистые, Sc - слоисто-кучевые, Ns - слоисто-дождевые, Cu - кучевые, Cb - кучево-дождевые. Подробнее классификацию облаков см. в Атласе облаков (PDF).
  • T - Температура воздуха - температура, измеренная на высоте 2 м над землей.
  • Td - Температура точки росы - температура, при понижении до которой содержащийся в воздухе водяной пар достигнет насыщения.
  • f - Относительная влажность воздуха - влажноcть воздуха, измеренная на высоте 2 м над землей.
  • Te - Эффективная температура - температура, которую ощущает одетый по сезону человек в тени. Характеристика душности погоды. При расчете учитывается влияние влажности воздуха и скорости ветра на теплоощущения человека.
  • Tes - Эффективная температура на солнце - температура, которую ощущает человек, с поправкой на солнечный нагрев. Характеристика знойности погоды. Зависит от высоты солнца над горизонтом, облачности и скорости ветра. Ночью, в пасмурную погоду, а также при ветре 12 м/с и более поправка равна нулю.
  • P - Атмосферное давление - приведенное к уровню моря атмосферное давление.
  • Po - Атмосферное давление - измеренное на уровне метеостанции атмосферное давление.
  • Tmin - Минимальная температура - минимум температуры воздуха на высоте 2 м над землей.
  • Tmax - Максимальная температура - максимум температуры воздуха на высоте 2 м над землей.
  • R - Количество осадков - Количество выпавших осадков за период времени, мм. При наведении курсора мыши на число - период времени, за который выпало указанное количество осадков.
  • R24 - Количество осадков - Количество выпавших осадков за 24 часа, мм.
  • S - Снежный покров - Высота снежного покрова, см. При наведении курсора мыши на число - состояние снежного покрова и степень покрытия местности в баллах.